Location: Fort Wayne
(41.1310°N, 85.1290°W)
Time: 06:43:30
(UTC-04:00)

Meteor 2-10 Rocket - Visible Passes

Search period start: 29 July 2014 00:00
Search period end: 08 August 2014 00:00
Orbit: 735 x 885 km, 81.2° (Epoch: 28 July)

Date Brightness Start Highest point End Pass type
(mag) Time Alt. Az. Time Alt. Az. Time Alt. Az.
29 Jul 4.3 22:42:46 10° NNW 22:48:07 51° W 22:52:51 12° SSW visible
30 Jul 3.8 22:18:34 10° NNW 22:24:04 73° W 22:29:19 10° S visible
31 Jul 3.6 21:54:27 10° N 21:59:59 81° E 22:05:14 10° SSE visible
31 Jul 6.3 23:39:25 10° WNW 23:41:07 12° W 23:42:49 10° W visible
01 Aug 3.7 21:30:25 10° N 21:35:50 58° ENE 21:40:59 10° SSE visible
01 Aug 6.1 23:13:58 10° NW 23:17:16 17° W 23:20:30 10° WSW visible
02 Aug 5.7 22:49:11 10° NW 22:53:22 23° W 22:57:25 10° SW visible
03 Aug 5.2 22:24:39 10° NNW 22:29:25 32° W 22:34:00 10° SSW visible
04 Aug 4.6 22:00:18 10° NNW 22:05:26 46° W 22:10:21 10° SSW visible
05 Aug 4.0 21:36:03 10° NNW 21:41:23 65° W 21:46:29 10° S visible
07 Aug 6.2 22:31:46 10° NW 22:34:31 14° W 22:37:14 10° WSW visible
